Погода в Аспиндзе

Погода в Аспиндзе : погода сейчас, прогноз погоды и архив. Всё, что Вы хотите узнать о погоде в Аспиндзе!

Поиск расширенной информации на нашем сайте:

Полезная информация: ссангйонг кайрон ремонт

Другие новости

Новости СМИ2

Главная страница сайта

Новости сайта

03.07.2017

Напоминаем, что на нашем специализированном сайте Метеоцентр.Азия вы можете получить высокодетализированные автоматические прогнозы погоды по пунктам России, СНГ и мира в авиационном формате (включающие направление и скорость ветра, видимость, явления погоды, количество и форму облачности, нижнюю и верхнюю границу облачности).

Рекомендуем: Например, при воспроизведении рекламные экраны в спб состоянии "покоя"

Погода в Аспиндзе - сегодня

Время (UTC), дата Ветер
(°,м/с) 
Видим.   Явления Облачность Т
(°С)
Тd
(°С)
f(%) Тe
(°С)
Pmin
(гПа)
dP
(гПа)
Po
(мм)
O2
(г/м3)
Тmin Tmax R s Состояние
почвы
21 08.02.18 тихо ()   4000 м    10/10 1000 м 
[Sc]
+0.3 -3.7 74 1024.2  -1.1  680  274           
00 09.02.18 тихо ()   4000 м    10/10 1000 м 
[Sc]
+0.4 -2.9 78 1024.6  0.3  680  274           
03 09.02.18 тихо ()   4000 м    10/10 1000 м 
[Sc]
-0.2 -2.6 84 -0  1022.9  -1.7  679  274           
06 09.02.18 тихо ()   20000 м    10/10 600 м 
[Sc]
+0.4 -1 90 1022.5  -0.1  679  273  -0.8         
09 09.02.18 тихо ()   20000 м    9/9 1000 м 
[Sc]
+4.8 -0.2 70 +5  1018.6  -1.7  677  268           
12 09.02.18 тихо ()   20000 м  слаб. дождь  10/10 1000 м 
[Frnb|Ns]
+6.4 -0.7 60 +6  1015.7  -1.9  676  266           
18 09.02.18 тихо ()   4000 м  слаб. дождь  10/10 600 м 
[Frnb|Ns]
+3.2 +1.9 91 +3  1017.3  0.5  676  269    +7     
21 09.02.18 тихо ()   4000 м  {дождь}  ясно 
+1 +0.7 98 +1  1019.2  0.8  677  271           
03 10.02.18 тихо ()   4000 м    10/10 1000 м 
[Sc]
+0.7 +0.4 98 +1  1021.7  0.9  678  272         
09 10.02.18 тихо ()   20000 м    ясно 
+4.8 +0.7 75 +5  1020.6  0.6  679  268           
12 10.02.18 тихо ()   20000 м    ясно 
+9.8 -1.9 44 +10  1019.5  0.8  679  264           
21 10.02.18 тихо ()   4000 м    ясно 
-1.6 -4.2 82 -2  1022.7  -0.2  678  275           
03 12.02.18 тихо ()   4000 м    8/8 1000 м 
[Sc]
+0.2 +0.2 100 1011.7        0.3     
03 13.02.18 тихо ()   4000 м  {дождь}  10/10 600 м 
[Frnb|Ns]
+1.6 +1.3 98 +2  1017.4  1.1  676  270         
03 14.02.18 тихо ()   4000 м    6/6 1000 м 
[Sc]
-0.6 -0.9 98 -1  1022.1  1.6  678  274      0.0     
21 14.02.18 тихо ()   4000 м    ясно 
-0.8 -4 79 -1  1027.6  1.8  682  276           
09 15.02.18 тихо ()   20000 м    1/0 средняя 
[Ac lent]
+7.2 -3 48 +7  1026.8  0.5  683  268           
12 15.02.18 тихо ()   20000 м    3/0 средняя 
[Ac lent]
+10.8 -3.8 36 +11  1024.1  -1.1  683  265           
21 15.02.18 тихо ()   4000 м    ясно 
-0.4 -3.2 81 -0  1031.2  0.2  684  276           
00 16.02.18 тихо ()   4000 м    ясно 
-2.5 -4.1 89 -3  1032.1  684  278           
09 16.02.18 тихо ()   20000 м    3/0 средняя 
[Ac lent]
+5.8 -0.5 64 +6  1027  -2.1  683  269           
12 16.02.18 тихо ()   20000 м    1/0 верхняя 
[Ci fib]
+12.2 -0.2 42 +12  1023  -1.1  682  263           
21 16.02.18 тихо ()   4000 м    ясно 
-2 -3.9 87 -2  1028.7  0.6  682  277           
00 17.02.18 тихо ()   4000 м    ясно 
-3.3 -3.6 98 -3  1029.1  -0.2  682  278           
09 17.02.18 тихо ()   20000 м    3/3 1000 м 
[Sc]
+7.4 -1.9 52 +7  1021.9  -1.1  680  267           
Время (UTC), дата Ветер
(°,м/с) 
Видим.   Явления Облачность Т
(°С)
Тd
(°С)
f(%) Тe
(°С)
Pmin
(гПа)
dP
(гПа)
Po
(мм)
O2
(г/м3)
Тmin Tmax R s Состояние
почвы

Для получения пояснительной информации подведите курсор к названию столбца.

ПОГОДА в Аспиндзе - архив

Всё, что Вы хотите узнать о погоде в Аспиндзе - удобно и подробно!

Выберите нужную дату (начиная с 1 января 2015* года) и нажмите кнопку "Найти".
Будут отображены архивные сводки погоды по пункту Аспиндза, начиная с указанной даты.


Отображать данные в формате CSV (для использования в таблицах Excel)


Внимание! Наш архив погоды предназначен исключительно для личного некоммерческого использования в познавательных целях. Если Вам необходимы официальные справки о состоянии погоды (для производственных, юридических, коммерческих и т.п. целей), обращайтесь в органы Росгидромета.

*Примечание: данная дата относится к архиву по метеостанциям СССР (Россия, СНГ, Балтия).
Архив по метеостанциям Зарубежной Европы и Азии (кроме Китая) хранится 10 дней, по другим регионам земного шара (Китай, Африка, Америка, Австралия, Океания) - 1 день.

Аспиндза - район местоположения метеостанции


Название, широта, долгота, высота метеостанции:
Аспиндза 41.6°ш. 43.2°д. 983 м над ур. моря [Грузия]

Дополнительная информация

В oтличие oт бoльшинства пoгoдных сайтoв мы публикуем пoдрoбную метеoинфoрмацию в детальнoм прoфессиoнальнoм фoрмате.

Характеристики температуры и влажнoсти вoздуха измеряются на высoте 2 м в тени вдали oт зданий и деревьев.
Скoрoсть ветра измеряется на высoте 10 м (на урoвне рoста челoвека скoрoсть ветра ниже в 1.5-2 раза). Если метеoстанция нахoдится в гoрoде или в лесу, тo скoрoсть ветра занижена на 2-4 м/с пo сравнению с oткрытым местoм. Скoрoсть ветра над акватoриями крупных рек и oзёр, а также на вершинах хoлмoв на 2-5 м/с выше, чем в oбычных услoвиях.
Атмoсфернoе давление в разных тoчках местнoсти мoжет значительнo oтличаться oт давления на метеoстанции, в зависимoсти oт услoвий рельефа (при пoдъёме на 10 м давление пoнижается примернo на 1 мм рт.ст.).